Detroit Lakes, MN

10:17 AM CST on January 22, 2018 (GMT -0600)
Detroit Lakes

Weather History for KDTL - December, 2012

Change the Weather History Date:

Wednesday, December 12, 2012

  Actual Average Record
Temperature  
Mean Temperature 18 °F -  
Max Temperature 30 °F 22 °F 55 °F (1939)
Min Temperature 5 °F 5 °F -20 °F (1962)
Degree Days  
Heating Degree Days 48    
Moisture  
Dew Point 16 °F    
Average Humidity 85    
Maximum Humidity 100    
Minimum Humidity 69    
Precipitation  
Precipitation 0.00 in - - ()
Sea Level Pressure  
Sea Level Pressure 29.80 in    
Wind  
Wind Speed 11 mph (SE)    
Max Wind Speed 20 mph    
Max Gust Speed 28 mph    
Visibility 10 miles    
Events      
Averages and records for this station are not official NWS values.
T = Trace of Precipitation, MM = Missing Value Source: NWS Daily Summary

Daily Weather History Graph

Daily Weather History Graph

Search for Another Location

Airport or City:

Trip Planner

Search our weather history database for the weather conditions in past years. The results will help you decide how hot, cold, wet, or windy it might be!

Date:

Astronomy

Dec. 12, 2012 Rise Set
Actual Time 7:59 AM CST 4:35 PM CST
Civil Twilight 7:24 AM CST 5:10 PM CST
Nautical Twilight 6:46 AM CST 5:48 PM CST
Astronomical Twilight 6:09 AM CST 6:25 PM CST
Moon 7:04 AM CST (12/12) 4:14 PM CST (12/12)
Length of Visible Light 9h 45m
Length of Day
8h 35m
Waning Crescent, 1% of the Moon is Illuminated
Dec 12
Waning Crescent
Dec 13
New
Dec 19
First Quarter
Dec 28
Full
Jan 4
Last Quarter

Hourly Weather History & Observations

Time (CST) Temp. Windchill Dew Point Humidity Pressure Visibility Wind Dir Wind Speed Gust Speed Precip Events Conditions
12:12 AM 6.8 °F -7.8 °F 3.2 °F 85% 29.88 in 10.0 mi SSE 10.4 mph - N/A   Clear
12:33 AM 5.0 °F -10.8 °F 3.2 °F 92% 29.87 in 10.0 mi SE 11.5 mph - N/A   Clear
12:53 AM 5.0 °F -10.8 °F 3.2 °F 92% 29.86 in 10.0 mi SE 11.5 mph 16.1 mph N/A   Clear
1:12 AM 6.8 °F -9.3 °F 3.2 °F 85% 29.85 in 10.0 mi SE 12.7 mph - N/A   Clear
1:33 AM 8.6 °F -6.3 °F 5.0 °F 85% 29.85 in 10.0 mi SE 11.5 mph - N/A   Clear
1:53 AM 8.6 °F -5.5 °F 5.0 °F 85% 29.85 in 10.0 mi SE 10.4 mph - N/A   Clear
2:12 AM 8.6 °F -7.0 °F 5.0 °F 85% 29.85 in 10.0 mi SE 12.7 mph 17.3 mph N/A   Clear
2:33 AM 8.6 °F -7.7 °F 5.0 °F 85% 29.84 in 10.0 mi SE 13.8 mph - N/A   Clear
2:53 AM 10.4 °F -4.8 °F 5.0 °F 79% 29.83 in 10.0 mi SE 12.7 mph 19.6 mph N/A   Scattered Clouds
3:12 AM 10.4 °F -4.8 °F 6.8 °F 85% 29.83 in 10.0 mi SE 12.7 mph 18.4 mph N/A   Scattered Clouds
3:33 AM 10.4 °F -6.0 °F 6.8 °F 85% 29.81 in 10.0 mi SE 15.0 mph - N/A   Scattered Clouds
3:53 AM 10.4 °F -3.3 °F 6.8 °F 85% 29.79 in 10.0 mi SE 10.4 mph - N/A   Clear
4:12 AM 12.2 °F -4.3 °F 8.6 °F 85% 29.78 in 10.0 mi SE 16.1 mph - N/A   Clear
4:33 AM 12.2 °F -3.7 °F 8.6 °F 85% 29.78 in 10.0 mi SE 15.0 mph - N/A   Clear
4:53 AM 12.2 °F -3.7 °F 8.6 °F 85% 29.77 in 10.0 mi SE 15.0 mph 19.6 mph N/A   Scattered Clouds
5:12 AM 12.2 °F -4.8 °F 10.4 °F 92% 29.77 in 10.0 mi SE 17.3 mph 24.2 mph N/A   Scattered Clouds
5:33 AM 14.0 °F -3.4 °F 10.4 °F 86% 29.75 in 10.0 mi SE 19.6 mph 23.0 mph N/A   Scattered Clouds
5:53 AM 14.0 °F -2.5 °F 12.2 °F 93% 29.74 in 10.0 mi SSE 17.3 mph 23.0 mph N/A   Clear
6:12 AM 14.0 °F -3.4 °F 12.2 °F 93% 29.74 in 10.0 mi SE 19.6 mph 23.0 mph N/A   Clear
6:33 AM 15.8 °F -0.2 °F 12.2 °F 86% 29.74 in 10.0 mi SSE 17.3 mph 27.6 mph N/A   Clear
6:53 AM 15.8 °F 0.9 °F 14.0 °F 93% 29.74 in 10.0 mi SSE 15.0 mph - N/A   Scattered Clouds
7:12 AM 17.6 °F 2.7 °F 14.0 °F 86% 29.74 in 10.0 mi SSE 16.1 mph 21.9 mph N/A   Scattered Clouds
7:33 AM 17.6 °F 2.7 °F 14.0 °F 86% 29.73 in 10.0 mi SSE 16.1 mph - N/A   Scattered Clouds
7:53 AM 17.6 °F 3.7 °F 15.8 °F 93% 29.73 in 10.0 mi SSE 13.8 mph - N/A   Scattered Clouds
8:12 AM 19.4 °F 5.5 °F 15.8 °F 86% 29.73 in 10.0 mi SSE 15.0 mph 20.7 mph N/A   Scattered Clouds
8:33 AM 19.4 °F 5.5 °F 15.8 °F 86% 29.71 in 10.0 mi SSE 15.0 mph - N/A   Scattered Clouds
8:53 AM 19.4 °F 5.5 °F 17.6 °F 93% 29.70 in 10.0 mi SE 15.0 mph - N/A   Scattered Clouds
9:12 AM 19.4 °F 6.6 °F 17.6 °F 93% 29.71 in 10.0 mi SSE 12.7 mph - N/A   Clear
9:33 AM 21.2 °F 9.5 °F 17.6 °F 86% 29.73 in 10.0 mi SSE 11.5 mph - N/A   Clear
9:53 AM 21.2 °F 8.9 °F 17.6 °F 86% 29.73 in 10.0 mi SSE 12.7 mph - N/A   Clear
10:12 AM 21.2 °F 10.1 °F 17.6 °F 86% 29.74 in 10.0 mi SSE 10.4 mph - N/A   Scattered Clouds
10:33 AM 21.2 °F 9.5 °F 17.6 °F 86% 29.75 in 10.0 mi SSE 11.5 mph - N/A   Scattered Clouds
10:53 AM 23.0 °F 12.4 °F 19.4 °F 86% 29.75 in 10.0 mi South 10.4 mph - N/A   Clear
11:12 AM 23.0 °F 13.1 °F 17.6 °F 80% 29.74 in 10.0 mi SSE 9.2 mph - N/A   Clear
11:33 AM 23.0 °F 14.7 °F 19.4 °F 86% 29.74 in 10.0 mi SSE 6.9 mph - N/A   Clear
11:53 AM 24.8 °F 16.1 °F 19.4 °F 80% 29.74 in 10.0 mi SSE 8.1 mph - N/A   Clear
12:12 PM 26.6 °F 21.2 °F 19.4 °F 74% 29.74 in 10.0 mi SSE 4.6 mph - N/A   Clear
12:33 PM 26.6 °F 19.1 °F 21.2 °F 80% 29.74 in 10.0 mi SSE 6.9 mph - N/A   Clear
12:52 PM 28.4 °F 22.2 °F 21.2 °F 74% 29.75 in 10.0 mi South 5.8 mph - N/A   Clear
1:12 PM 28.4 °F 21.2 °F 21.2 °F 74% 29.74 in 10.0 mi South 6.9 mph - N/A   Clear
1:32 PM 28.4 °F 23.3 °F 21.2 °F 74% 29.73 in 10.0 mi SSE 4.6 mph - N/A   Clear
1:53 PM 28.4 °F 22.2 °F 21.2 °F 74% 29.74 in 10.0 mi SSE 5.8 mph - N/A   Clear
2:13 PM 30.2 °F 25.4 °F 21.2 °F 69% 29.73 in 10.0 mi South 4.6 mph - N/A   Clear
2:33 PM 30.2 °F - 21.2 °F 69% 29.74 in 10.0 mi Calm Calm - N/A   Clear
2:52 PM 30.2 °F - 21.2 °F 69% 29.75 in - Calm Calm - N/A   Clear
3:13 PM 28.4 °F - 21.2 °F 74% 29.76 in - Calm Calm - N/A   Clear
3:32 PM 28.4 °F - 21.2 °F 74% 29.77 in 10.0 mi Calm Calm - N/A   Clear
3:52 PM 28.4 °F - 21.2 °F 74% 29.78 in 10.0 mi Calm Calm - N/A   Clear
4:13 PM 28.4 °F - 21.2 °F 74% 29.79 in 10.0 mi Calm Calm - N/A   Clear
4:32 PM 28.4 °F - 21.2 °F 74% 29.79 in 10.0 mi Calm Calm - N/A   Clear
4:53 PM 28.4 °F - 21.2 °F 74% 29.80 in 10.0 mi Calm Calm - N/A   Clear
5:12 PM 26.6 °F 21.2 °F 21.2 °F 80% 29.81 in 10.0 mi NNW 4.6 mph - N/A   Clear
5:33 PM 26.6 °F 21.2 °F 21.2 °F 80% 29.82 in 10.0 mi NW 4.6 mph - N/A   Clear
6:12 PM 26.6 °F 20.0 °F 21.2 °F 80% 29.83 in 10.0 mi NW 5.8 mph - N/A   Clear
6:33 PM 24.8 °F 16.1 °F 21.2 °F 86% 29.83 in - NNW 8.1 mph - N/A   Unknown
6:53 PM 23.0 °F 14.7 °F 21.2 °F 93% 29.84 in - NNW 6.9 mph - N/A   Unknown
7:12 PM 23.0 °F 14.7 °F 21.2 °F 93% 29.84 in - NNW 6.9 mph - N/A   Unknown
7:33 PM 23.0 °F 14.7 °F 21.2 °F 93% 29.85 in - NNW 6.9 mph - N/A   Unknown
7:53 PM 21.2 °F 10.9 °F 19.4 °F 93% 29.86 in - NNW 9.2 mph - N/A   Unknown
8:12 PM 21.2 °F 10.9 °F 19.4 °F 93% 29.87 in - NNW 9.2 mph - N/A   Unknown
8:33 PM 19.4 °F 9.5 °F 19.4 °F 100% 29.88 in - NNW 8.1 mph - N/A   Unknown
8:52 PM 19.4 °F 8.6 °F 19.4 °F 100% 29.89 in - NNW 9.2 mph - N/A   Unknown
9:33 PM 19.4 °F 9.5 °F 17.6 °F 93% 29.90 in 7.0 mi NW 8.1 mph - N/A   Clear
9:52 PM 19.4 °F 9.5 °F 17.6 °F 93% 29.90 in 10.0 mi NW 8.1 mph - N/A   Clear
10:13 PM 19.4 °F 8.6 °F 17.6 °F 93% 29.90 in 10.0 mi NNW 9.2 mph - N/A   Clear
10:33 PM 19.4 °F 9.5 °F 17.6 °F 93% 29.90 in 10.0 mi NNW 8.1 mph - N/A   Clear
10:52 PM 19.4 °F 9.5 °F 17.6 °F 93% 29.90 in 10.0 mi North 8.1 mph - N/A   Clear
11:13 PM 19.4 °F 11.5 °F 17.6 °F 93% 29.90 in 10.0 mi North 5.8 mph - N/A   Clear
11:32 PM 19.4 °F 11.5 °F 17.6 °F 93% 29.90 in 10.0 mi North 5.8 mph - N/A   Clear
11:52 PM 19.4 °F 8.6 °F 17.6 °F 93% 29.90 in 10.0 mi NNW 9.2 mph - N/A   Clear